Kansas Department of Transportation
RWIS(Road and Runway Information System) Map and Weather Data





Station
Surface
Air
Wind
Site IDSensor TypeLocationTemperature (°F)Temperature (°F)Humidity (%)Speed (mi/h)Gusts (mi/h)DirectionTime
123002AtmosphericBonner Springs 8844611SMay 23 2018 4:40PM
123002ApproachBonner Springs120     May 23 2018 4:40PM
123002DeckBonner Springs115     May 23 2018 4:40PM
123014AtmosphericBull Creek 8839410SEMay 23 2018 4:40PM
123014DeckBull Creek118     May 23 2018 4:40PM
123014DepartureBull Creek115     May 23 2018 4:40PM
123015AtmosphericLeavenworth 8846612SMay 23 2018 4:40PM
123015DeckLeavenworthUnavailable     May 23 2018 4:40PM
123015DepartureLeavenworth117     May 23 2018 4:40PM
123020AtmosphericMayetta 8837914SSEMay 23 2018 4:40PM
123020RoadwayMayetta120     May 23 2018 4:40PM
123020DeckMayetta122     May 23 2018 4:40PM
505000AtmosphericKTA 1 883767SEMay 23 2018 4:40PM
505000ApproachKTA 1108     May 23 2018 4:40PM
505000DeckKTA 1117     May 23 2018 4:40PM
505001AtmosphericKTA 2 904549SEMay 23 2018 4:40PM
505001ApproachKTA 2118     May 23 2018 4:40PM
505001DeckKTA 2120     May 23 2018 4:40PM
505002AtmosphericKTA 3 865749SEMay 23 2018 4:40PM
505002ApproachKTA 3124     May 23 2018 4:40PM
505002DeckKTA 3120     May 23 2018 4:40PM
505003AtmosphericKTA 4 8647714NMay 23 2018 4:40PM
505003ApproachKTA 4115     May 23 2018 4:40PM
505003DeckKTA 4115     May 23 2018 4:40PM
505004AtmosphericKTA 5 8499912SEMay 23 2018 4:40PM
505004RoadwayKTA 5117     May 23 2018 4:40PM
505004RoadwayKTA 5117     May 23 2018 4:40PM
505005AtmosphericKTA 6 914600NMay 23 2018 4:40PM
505005Approach KTA 6Unavailable     May 23 2018 4:40PM
505005DeckKTA 6115     May 23 2018 4:40PM
505006AtmosphericKTA 7 884968ESEMay 23 2018 4:40PM
505006ApproachKTA 7Unavailable     May 23 2018 4:40PM
505006DeckKTA 7Unavailable     May 23 2018 4:40PM
505007AtmosphericKTA 8 8852711SSEMay 23 2018 4:40PM
505007ApproachKTA 8118     May 23 2018 4:40PM
505007DeckKTA 8118     May 23 2018 4:40PM
505008AtmosphericKTA 9 931047SEMay 23 2018 4:40PM
505008ApproachKTA 9126     May 23 2018 4:40PM
505008DeckKTA 9117     May 23 2018 4:40PM
505009AtmosphericKTA 10 902536SEMay 23 2018 4:40PM
505009ApproachKTA 10111     May 23 2018 4:40PM
505009DeckKTA 10115     May 23 2018 4:40PM
505010AtmosphericWebb 9033912EMay 23 2018 4:40PM
505010DeckWebb117     May 23 2018 4:40PM
505010NullWebb117     May 23 2018 4:40PM
505014AtmosphericI-135 8647612SSEMay 23 2018 4:35PM
505014ApproachI-135111     May 23 2018 4:45PM
505014DeckI-135Unavailable     May 23 2018 4:45PM
540000AtmosphericBlue Rapids 8841713SMay 23 2018 4:40PM
540000DeckBlue Rapids111     May 23 2018 4:40PM
540000DepartureBlue Rapids120     May 23 2018 4:40PM
540001AtmosphericSabetha 9037712SMay 23 2018 4:40PM
540001ApproachSabethaUnavailable     May 23 2018 4:40PM
540001DeckSabetha124     May 23 2018 4:40PM
540002AtmosphericWestgate 8840610SEMay 23 2018 4:40PM
540002DeckWestgate108     May 23 2018 4:40PM
540002DepartureWestgateUnavailable     May 23 2018 4:40PM
540003AtmosphericEmporia 865347SSEMay 23 2018 4:40PM
540003ApproachEmporia109     May 23 2018 4:40PM
540003DeckEmporia106     May 23 2018 4:40PM
540005AtmosphericLawrence 8847410ESEMay 23 2018 4:40PM
540005ApproachLawrenceUnavailable     May 23 2018 4:40PM
540005DeckLawrenceUnavailable     May 23 2018 4:40PM
540006AtmosphericTroy 9050611SEMay 23 2018 4:40PM
540006DeckTroy      May 23 2018 4:45PM
540006DepartureTroy      May 23 2018 4:45PM
540007AtmosphericManhattan 865027ESEMay 23 2018 4:40PM
540007DepartureManhattan124     May 23 2018 4:40PM
540007DeckManhattan126     May 23 2018 4:40PM
541000AtmosphericElkhart 82441218SMay 23 2018 4:40PM
541000ApproachElkhart102     May 23 2018 4:40PM
541000DeckElkhart102     May 23 2018 4:40PM
541000DeckElkhart102     May 23 2018 4:40PM
541001AtmosphericSyracuse 82461221SSWMay 23 2018 4:40PM
541001Out of Service for WinterSyracuse113     May 23 2018 4:40PM
541001DeckSyracuse106     May 23 2018 4:40PM
541002AtmosphericLiberal 9033916SMay 23 2018 4:40PM
541002ApproachLiberalUnavailable     May 23 2018 4:40PM
541002DeckLiberalUnavailable     May 23 2018 4:40PM
541003AtmosphericFord 8149912SMay 23 2018 4:40PM
541003DeckFord93     May 23 2018 4:40PM
541003DepartureFord93     May 23 2018 4:40PM
541004AtmosphericScott 84101324NMay 23 2018 4:40PM
541004DepartureScott115     May 23 2018 4:40PM
541005AtmosphericNess 8654912SSEMay 23 2018 4:40PM
541005DeckNess106     May 23 2018 4:40PM
541005DepartureNessUnavailable     May 23 2018 4:40PM
541007AtmosphericGarden City 82471220SSWMay 23 2018 4:40PM
541007ApproachGarden City99     May 23 2018 4:40PM
541007DeckGarden City106     May 23 2018 4:40PM
543000AtmosphericJunction City 903969NNEMay 23 2018 4:40PM
543000ApproachJunction City117     May 23 2018 4:40PM
543000DeckJunction City118     May 23 2018 4:40PM
543001AtmosphericEllsworth 86261114WMay 23 2018 4:40PM
543001RoadwayEllsworthUnavailable     May 23 2018 4:40PM
543002AtmosphericMcPherson      May 23 2018 3:25AM
543002ApproachMcPherson      May 23 2018 3:25AM
543002DeckMcPherson      May 23 2018 3:25AM
543003AtmosphericSalina 9021816SSEMay 23 2018 4:40PM
543003DepartureSalina108     May 23 2018 4:40PM
543003RoadwaySalina111     May 23 2018 4:40PM
543004AtmosphericConcordia 84498 SSEMay 23 2018 4:40PM
543004ApproachConcordiaUnavailable     May 23 2018 4:40PM
543004DeckConcordiaUnavailable     May 23 2018 4:40PM
543005AtmosphericPeabody 8837812NNEMay 23 2018 4:40PM
543005ApproachPeabody127     May 23 2018 4:40PM
543005DeckPeabodyUnavailable     May 23 2018 4:40PM
560000AtmosphericEdson 8231813SMay 23 2018 4:40PM
560000RoadwayEdson108     May 23 2018 4:40PM
560000RoadwayEdson106     May 23 2018 4:40PM
560001AtmosphericOakley 82421216SSEMay 23 2018 4:40PM
560001ApproachOakley109     May 23 2018 4:40PM
560001DeckOakley111     May 23 2018 4:40PM
560002AtmosphericAtwood 8637916SMay 23 2018 4:40PM
560002ApproachAtwood109     May 23 2018 4:40PM
560002DeckAtwood115     May 23 2018 4:40PM
560003AtmosphericJennings 883646SWMay 23 2018 4:40PM
560003ApproachJenningsUnavailable     May 23 2018 4:40PM
560003DeckJennings111     May 23 2018 4:40PM
560003DeckJennings111     May 23 2018 4:40PM
560004AtmosphericWakeeney 86421116SSWMay 23 2018 4:40PM
560004ApproachWakeeney      May 23 2018 4:40PM
560004DeckWakeeney111     May 23 2018 4:40PM
560005AtmosphericWalker 88441216SSEMay 23 2018 4:40PM
560005ApproachWalker106     May 23 2018 4:40PM
560005DeckWalker104     May 23 2018 4:40PM
560006AtmosphericBow Creek(Stockton) 8634916SSEMay 23 2018 4:40PM
560006ApproachBow Creek(Stockton)109     May 23 2018 4:40PM
560006DeckBow Creek(Stockton)106     May 23 2018 4:40PM
560007AtmosphericLebanon 7743814SSEMay 23 2018 4:40PM
560007ApproachLebanon109     May 23 2018 4:40PM
560007DeckLebanon104     May 23 2018 4:40PM
560008AtmosphericWallace 84161317SWMay 23 2018 4:40PM
560008ApproachWallace117     May 23 2018 4:40PM
560008DeckWallace113     May 23 2018 4:40PM
572000AtmosphericGreat Bend 84491116SMay 23 2018 4:40PM
572000ApproachGreat BendUnavailable     May 23 2018 4:40PM
572000DeckGreat Bend100     May 23 2018 4:40PM
572001AtmosphericPratt 901328SEMay 23 2018 4:40PM
572001ApproachPratt124     May 23 2018 4:40PM
572001DeckPratt118     May 23 2018 4:40PM
572002AtmosphericAnthony 8840711SEMay 23 2018 4:40PM
572002ApproachAnthony115     May 23 2018 4:40PM
572002DeckAnthony115     May 23 2018 4:40PM
573000AtmosphericEureka 82594 SEMay 23 2018 4:40PM
573000DeckEurekaUnavailable     May 23 2018 4:40PM
573000DepartureEurekaUnavailable     May 23 2018 4:40PM
573001AtmosphericGarnett 865524SSWMay 23 2018 4:40PM
573001ApproachGarnett122     May 23 2018 4:40PM
573001DeckGarnett120     May 23 2018 4:40PM
573002AtmosphericCaney 706900SEMay 23 2018 4:40PM
573002RoadwayCaney77     May 23 2018 4:40PM
573003AtmosphericChetopa 819700NMay 23 2018 4:40PM
573003DeckChetopa84     May 23 2018 4:40PM
573003DeckChetopa84     May 23 2018 4:40PM
573003DepartureChetopa82     May 23 2018 4:40PM
573004AtmosphericChanute 849047SMay 23 2018 4:40PM
573004ApproachChanute93     May 23 2018 4:40PM
573004DeckChanute93     May 23 2018 4:40PM